Location: Asheville, NC
(35.6000°N, 82.5500°W)
Time: 04:39:51
(UTC-04:00)

Vanguard 1 Rocket - Pass Details

Date: 12 February 2018
Orbit: 652 x 4225 km, 34.3° (Epoch: 20 May)

Event Time Altitude Azimuth Distance (km) Brightness Sun altitude
Rises 23:06:53 0° 216° (SW) 6,878 11.9 -58.8°
Reaches altitude 10° 23:11:09 10° 211° (SSW) 6,247 11.5 -59.4°
Enters shadow 23:12:43 14° 208° (SSW) 6,034 11.4 -59.7°
Maximum altitude 23:32:14 50° 142° (SE) 4,822 - -62.5°
Exits shadow 23:54:09 13° 78° (ENE) 6,721 11.6 -65.1°
Drops below altitude 10° 23:55:46 10° 76° (ENE) 6,943 11.7 -65.2°
Sets 00:00:45 0° 72° (ENE) 7,660 12.1 -65.7°
